Weather History for KSJT - May, 2013

Change the Weather History Date:

Wednesday, May 22, 2013

  Actual Average Record
Temperature  
Mean Temperature 77 °F 76 °F  
Max Temperature 97 °F 88 °F 107 °F (1984)
Min Temperature 57 °F 64 °F 43 °F (1928)
Degree Days  
Heating Degree Days 0 0  
Month to date heating degree days 32 8  
Since 1 July heating degree days 1919 2314  
Cooling Degree Days 12 11  
Month to date cooling degree days 212 194  
Year to date cooling degree days 461 350  
Growing Degree Days 27 (Base 50)    
Moisture  
Dew Point 49 °F    
Average Humidity 44    
Maximum Humidity 69    
Minimum Humidity 18    
Precipitation  
Precipitation 0.00 in 0.11 in 1.90 in (1909)
Month to date precipitation 1.42 1.82  
Year to date precipitation 4.23 7.02  
Sea Level Pressure  
Sea Level Pressure 29.81 in    
Wind  
Wind Speed 9 mph (South)    
Max Wind Speed 20 mph    
Max Gust Speed 28 mph    
Visibility 10 miles    
Events      
T = Trace of Precipitation, MM = Missing Value Source: NWS Daily Summary

Daily Weather History Graph

Daily Weather History Graph

Search for Another Location

Airport or City:

Trip Planner

Search our weather history database for the weather conditions in past years. The results will help you decide how hot, cold, wet, or windy it might be!

Date:

Astronomy

May. 22, 2013 Rise Set
Actual Time 6:41 AM CDT 8:35 PM CDT
Civil Twilight 6:14 AM CDT 9:02 PM CDT
Nautical Twilight 5:42 AM CDT 9:35 PM CDT
Astronomical Twilight 5:07 AM CDT 10:10 PM CDT
Moon 6:08 PM CDT (5/22) 4:36 AM CDT (5/22)
Length of Visible Light 14h 48m
Length of Day
13h 54m
Waxing Gibbous, 91% of the Moon is Illuminated
May 22
Waxing Gibbous
May 24
Full
May 31
Last Quarter
Jun 8
New
Jun 16
First Quarter

Hourly Weather History & Observations

Time (CDT) Temp. Heat Index Dew Point Humidity Pressure Visibility Wind Dir Wind Speed Gust Speed Precip Events Conditions
12:51 AM 66.0 °F - 46.0 °F 48% 29.83 in 10.0 mi East 6.9 mph - N/A   Clear
1:51 AM 66.9 °F - 46.9 °F 49% 29.82 in 10.0 mi SE 10.4 mph - N/A   Clear
2:51 AM 64.9 °F - 48.0 °F 54% 29.83 in 10.0 mi South 4.6 mph - N/A   Clear
3:51 AM 63.0 °F - 48.9 °F 60% 29.84 in 10.0 mi Calm Calm - N/A   Clear
4:51 AM 59.0 °F - 48.0 °F 67% 29.85 in 10.0 mi SW 3.5 mph - N/A   Clear
5:51 AM 60.1 °F - 48.0 °F 64% 29.85 in 10.0 mi Calm Calm - N/A   Clear
6:51 AM 61.0 °F - 50.0 °F 67% 29.86 in 10.0 mi SSE 6.9 mph - N/A   Clear
7:51 AM 62.1 °F - 51.1 °F 67% 29.88 in 10.0 mi Calm Calm - N/A   Clear
8:51 AM 69.1 °F - 51.1 °F 53% 29.89 in 10.0 mi SW 5.8 mph - N/A   Clear
9:51 AM 75.9 °F - 50.0 °F 40% 29.90 in 10.0 mi SE 6.9 mph - N/A   Clear
10:51 AM 82.9 °F - 45.0 °F 26% 29.88 in 10.0 mi ESE 10.4 mph - N/A   Clear
11:51 AM 87.1 °F - 43.0 °F 21% 29.88 in 10.0 mi SE 10.4 mph 25.3 mph N/A   Partly Cloudy
12:51 PM 89.1 °F - 51.1 °F 27% 29.86 in 10.0 mi Calm Calm - N/A   Clear
1:51 PM 91.9 °F - 48.0 °F 22% 29.81 in 10.0 mi South 12.7 mph 21.9 mph N/A   Clear
2:51 PM 95.0 °F - 48.9 °F 21% 29.79 in 10.0 mi SSW 12.7 mph - N/A   Clear
3:51 PM 96.1 °F - 46.9 °F 19% 29.76 in 10.0 mi SSW 17.3 mph 24.2 mph N/A   Clear
4:51 PM 96.1 °F - 46.9 °F 19% 29.73 in 10.0 mi South 15.0 mph 20.7 mph N/A   Clear
5:51 PM 96.1 °F - 48.9 °F 20% 29.71 in 10.0 mi South 10.4 mph - N/A   Clear
6:51 PM 95.0 °F - 46.9 °F 19% 29.71 in 10.0 mi SSW 11.5 mph 19.6 mph N/A   Clear
7:51 PM 93.0 °F - 46.9 °F 20% 29.72 in 10.0 mi South 10.4 mph - N/A   Clear
8:51 PM 89.1 °F - 51.1 °F 27% 29.73 in 10.0 mi South 6.9 mph - N/A   Clear
9:51 PM 86.0 °F - 50.0 °F 29% 29.75 in 10.0 mi South 5.8 mph - N/A   Clear
10:51 PM 86.0 °F 84.0 °F 53.1 °F 32% 29.77 in 10.0 mi South 11.5 mph - N/A   Clear
11:51 PM 84.0 °F 84.4 °F 61.0 °F 46% 29.79 in 10.0 mi South 16.1 mph 27.6 mph N/A   Clear